Flag for USA

Past Weather in Waipahu, Hawaii, USA — Yesterday and Last 2 Weeks

Now
70 °F

Partly cloudy.


Feels Like: 70 °F
Forecast: 87 / 72 °F
Wind: 5 mph from Northwest

Location: Wheeler Air Force Base / Oahu

Current Time: Jul 14, 2020 at 4:35:02 am

Latest Report: Jul 14, 2020 at 3:56 am


Visibility: 10 mi

Pressure: 29.94 "Hg

Humidity: 95%

Dew Point: 68 °F

Location of WaipahuLocation

Past Weather in Waipahu — Graph

°F

Waipahu Temperature Yesterday

Maximum temperature yesterday: 83 °F (at 12:56 pm)
Minimum temperature yesterday: 68 °F (at 3:56 am)
Average temperature yesterday: 74 °F

High & Low Weather Summary for the Past Weeks

 TemperatureHumidityPressure
High86 °F (Jul 5, 12:56 pm)100% (Jul 4, 6:11 am)30.11 "Hg (Jul 4, 6:11 am)
Low66 °F (Jul 12, 4:56 am)50% (Jul 6, 11:56 am)29.91 "Hg (Jun 29, 4:11 pm)
Average75 °F79%30.00 "Hg
* Reported Jun 29 3:56 am — Jul 14 3:21 am, Waipahu. Weather by CustomWeather, © 2020

Note: Actual official high and low records may vary slightly from our data, if they occured in-between our weather recording intervals... More about our weather records

Waipahu Weather History for the Previous 24 Hours

Scroll right to see more
 ConditionsComfort  
Time TempWeatherWind HumidityBarometerVisibility
3:21 am
Tue, Jul 14
72 °FLight rain. Overcast.3 mph88%29.92 "Hg10 mi
2:56 am69 °FPassing clouds.6 mph91%29.95 "Hg10 mi
1:56 am73 °FPassing clouds.5 mph82%29.92 "Hg10 mi
1:26 am73 °FPartly cloudy.5 mph78%29.93 "Hg10 mi
1:01 am73 °FPassing clouds.5 mph78%29.96 "Hg10 mi
11:56 pm
Mon, Jul 13
71 °FPartly cloudy.3 mph85%29.98 "Hg10 mi
11:21 pm73 °FPassing clouds.5 mph78%29.98 "Hg10 mi
10:56 pm74 °FPassing clouds.3 mph79%29.98 "Hg10 mi
10:06 pm73 °FPassing clouds.3 mph78%30.00 "Hg10 mi
9:56 pm74 °FPassing clouds.3 mph80%29.97 "Hg10 mi
9:31 pm75 °FPassing clouds.No wind74%29.99 "Hg10 mi
8:56 pm74 °FPassing clouds.No wind77%29.98 "Hg10 mi
8:11 pm75 °FPassing clouds.6 mph74%29.98 "Hg10 mi
8:06 pm75 °FPassing clouds.6 mph74%29.95 "Hg10 mi
7:56 pm76 °FPassing clouds.5 mph74%29.95 "Hg10 mi
6:56 pm77 °FPartly sunny.5 mph68%29.94 "Hg10 mi
5:56 pm78 °FSunny.7 mph67%29.93 "Hg10 mi
4:56 pm81 °FPartly sunny.8 mph61%29.92 "Hg10 mi
3:56 pm82 °FBroken clouds.14 mph59%29.95 "Hg10 mi
2:56 pm80 °FMostly cloudy.12 mph61%29.93 "Hg10 mi
1:56 pm82 °FPassing clouds.12 mph55%29.93 "Hg10 mi
12:56 pm83 °FBroken clouds.17 mph55%29.98 "Hg10 mi
12:26 pm82 °FBroken clouds.15 mph58%29.98 "Hg10 mi
12:17 pm82 °FBroken clouds.13 mph55%29.96 "Hg10 mi
11:56 am81 °FPartly sunny.12 mph58%30.00 "Hg10 mi
10:56 am80 °FPartly sunny.16 mph62%29.98 "Hg10 mi
9:56 am76 °FMore clouds than sun.10 mph79%29.98 "Hg10 mi
9:44 am77 °FCloudy.9 mph74%30.01 "Hg10 mi
9:14 am73 °FCloudy.8 mph89%29.99 "Hg10 mi
8:56 am73 °FDrizzle. Broken clouds.5 mph91%29.98 "Hg10 mi
8:40 am73 °FBroken clouds.7 mph89%30.01 "Hg9 mi
8:32 am73 °FDrizzle. Broken clouds.6 mph89%29.98 "Hg10 mi
8:19 am72 °FBroken clouds.7 mph94%30.00 "Hg10 mi
8:06 am72 °FBroken clouds.3 mph94%29.98 "Hg10 mi
7:56 am71 °FDrizzle. More clouds than sun.3 mph97%29.98 "Hg8 mi
6:56 am69 °FCloudy.3 mph99%30.00 "Hg10 mi
6:14 am68 °FMostly cloudy.No wind100%29.98 "Hg10 mi
5:56 am69 °FLight rain. Fog.No wind99%29.98 "Hg4 mi
5:21 am68 °FPartly cloudy.5 mph100%29.98 "Hg10 mi
4:56 am68 °FMostly cloudy.5 mph97%29.98 "Hg10 mi
4:29 am70 °FPartly cloudy.3 mph94%29.96 "Hg10 mi
4:13 am68 °FLight rain. Passing clouds.No wind100%29.98 "Hg10 mi
Weather by CustomWeather, © 2020

See weather overview